P/2020 F1 ( Leonard )

Japanese version
Home page
Updated on March 26, 2020

---------------------------------------------------------------------

* Profile

Discovery Date March 16, 2020
Magnitude 20.1 mag
Discoverer Gregory J. Leonard (Mount Lemmon)

* Orbital Elements

Epoch 2019 Aug. 25.0 TT = JDT 2458720.5                                         
T 2019 Aug. 29.32327 TT                                 Rudenko                 
q   3.9831462            (2000.0)            P               Q                  
n   0.05519020     Peri.    8.70323     -0.82226104     -0.56538437             
a   6.8322130      Node   136.65559     +0.51628153     -0.78911821             
e   0.4170050      Incl.    5.43551     +0.23945808     -0.24006866             
P  17.9                                                                         
From 85 observations 2019 Jan. 3-2020 Mar. 21, mean residual 0".5.              

* Magnitudes Graph

        m1 = 12.0 + 5 log d + 10.0 log r

---------------------------------------------------------------------

The orbital elements are published on M.P.E.C. 2020-F144.
The magnitudes graphs are made with Comet for Windows.

---------------------------------------------------------------------

Copyright(C) Seiichi Yoshida (comet@aerith.net). All rights reserved.